Date String (YYYY-MM-DD hh:mm:ss) UTC,Instrument flags,Ambient pressure (hPa),Sample flow (lpm),Bypass flow (lpm),Sample temperature (°C),Ambient temperature (°C),ASC tube jacket temperature (°C),LED temperature (°C),Box temperature (°C),Sample RH (%),Span deviation,Mass concentration (μg/m³),Mass concentration (μg/m³),Mass concentration (μg/m³)
DateTimeUTC,F1_M11,P_M11,Q1_M11,Q2_M11,T1_M11,T2_M11,T3_M11,T4_M11,T5_M11,U1_M11,ZSPAN_M11,X0_M11,X2_M11,X1_M11
2022-11-10 21:00:00,,0821.0,5.02,0.00,23.2,21.7,00.0,32.1,25.0,07.2,0000.0,0002.60,0000.48,0000.21
2022-11-10 21:01:00,,0821.1,5.01,0.00,23.2,21.7,00.0,32.1,25.0,07.2,0000.0,0002.58,0000.47,0000.21
2022-11-10 21:02:00,,0821.0,4.98,0.00,23.2,21.7,00.0,32.1,25.0,07.3,0000.0,0001.80,0000.46,0000.20
2022-11-10 21:03:00,,0821.1,5.00,0.00,23.2,21.7,00.0,32.1,25.0,07.3,0000.0,0001.61,0000.48,0000.20
2022-11-10 21:04:00,,0821.1,5.02,0.00,23.2,21.7,00.0,32.1,25.0,07.3,0000.0,0001.68,0000.51,0000.21
2022-11-10 21:05:00,,0821.2,5.00,0.00,23.2,21.7,00.0,32.1,25.0,07.4,0000.0,0001.56,0000.50,0000.21
2022-11-10 21:06:00,,0821.1,5.00,0.00,23.2,21.7,00.0,32.1,25.0,07.4,0000.0,0001.34,0000.45,0000.20
2022-11-10 21:07:00,,0821.2,4.99,0.00,23.2,21.7,00.0,32.1,25.0,07.3,0000.0,0001.25,0000.42,0000.20
2022-11-10 21:08:00,,0821.1,5.00,0.00,23.2,21.7,00.0,32.1,25.0,07.4,0000.0,0001.21,0000.39,0000.20
2022-11-10 21:09:00,,0821.0,5.01,0.00,23.2,21.7,00.0,32.1,25.0,07.4,0000.0,0001.13,0000.38,0000.20
2022-11-10 21:10:00,,0821.1,5.01,0.00,23.2,21.7,00.0,32.1,25.0,07.4,0000.0,0001.09,0000.37,0000.20
2022-11-10 21:11:00,,0821.1,4.99,0.00,23.2,21.7,00.0,32.1,25.0,07.3,0000.0,0001.07,0000.36,0000.20
2022-11-10 21:12:00,,0821.2,5.00,0.00,23.2,21.7,00.0,32.1,25.0,07.3,0000.0,0001.29,0000.37,0000.20
2022-11-10 21:13:00,,0821.2,5.00,0.00,23.2,21.7,00.0,32.0,25.0,07.3,0000.0,0002.90,0000.37,0000.20
2022-11-10 21:14:00,,0821.3,5.01,0.00,23.2,21.7,00.0,32.1,25.0,07.3,0000.0,0002.85,0000.35,0000.19
2022-11-10 21:15:00,,0821.3,5.00,0.00,23.2,21.7,00.0,32.0,25.0,07.4,0000.0,0002.76,0000.32,0000.20
2022-11-10 21:16:00,,0821.3,5.00,0.00,23.2,21.8,00.0,32.0,25.0,07.4,0000.0,0002.76,0000.32,0000.20
2022-11-10 21:17:00,,0821.3,5.00,0.00,23.2,21.8,00.0,32.0,25.0,07.4,0000.0,0002.54,0000.33,0000.20
2022-11-10 21:18:00,,0821.3,5.01,0.00,23.2,21.8,00.0,32.0,25.0,07.2,0000.0,0002.40,0000.34,0000.20
2022-11-10 21:19:00,,0821.4,5.00,0.00,23.2,21.8,00.0,32.0,25.0,07.3,0000.0,0002.39,0000.32,0000.20
2022-11-10 21:20:00,,0821.3,4.99,0.00,23.2,21.8,00.0,32.0,25.0,07.3,0000.0,0002.48,0000.31,0000.19
2022-11-10 21:21:00,,0821.4,5.00,0.00,23.2,21.8,00.0,32.0,25.0,07.3,0000.0,0002.56,0000.34,0000.20
2022-11-10 21:22:00,,0821.4,5.00,0.00,23.2,21.8,00.0,32.0,25.0,07.3,0000.0,0002.63,0000.36,0000.20
2022-11-10 21:23:00,,0821.4,5.02,0.00,23.2,21.8,00.0,32.0,25.0,07.2,0000.0,0002.27,0000.36,0000.20
2022-11-10 21:24:00,,0821.4,4.99,0.00,23.2,21.8,00.0,32.0,25.1,07.3,0000.0,0000.82,0000.36,0000.20
2022-11-10 21:25:00,,0821.4,5.00,0.00,23.2,21.8,00.0,32.0,25.0,07.3,0000.0,0000.82,0000.35,0000.20
2022-11-10 21:26:00,,0821.4,4.98,0.00,23.2,21.8,00.0,32.0,25.0,07.4,0000.0,0000.81,0000.35,0000.19
2022-11-10 21:27:00,,0821.4,5.01,0.00,23.2,21.8,00.0,32.0,25.0,07.4,0000.0,0000.78,0000.34,0000.20
2022-11-10 21:28:00,,0821.4,5.01,0.00,23.2,21.9,00.0,32.0,25.1,07.4,0000.0,0000.76,0000.32,0000.19
2022-11-10 21:29:00,,0821.4,4.99,0.00,23.2,21.9,00.0,32.0,25.1,07.4,0000.0,0000.76,0000.31,0000.19
2022-11-10 21:30:00,,0821.4,4.99,0.00,23.2,21.9,00.0,32.1,25.1,07.4,0000.0,0000.70,0000.31,0000.19
2022-11-10 21:31:00,,0821.5,5.01,0.00,23.2,21.9,00.0,32.1,25.1,07.4,0000.0,0000.61,0000.31,0000.20
2022-11-10 21:32:00,,0821.5,5.01,0.00,23.2,22.0,00.0,32.1,25.1,07.5,0000.0,0000.55,0000.29,0000.19
2022-11-10 21:33:00,,0821.5,4.99,0.00,23.3,22.0,00.0,32.1,25.1,07.4,0000.0,0000.54,0000.28,0000.19
2022-11-10 21:34:00,,0821.5,4.98,0.00,23.3,22.0,00.0,32.1,25.1,07.3,0000.0,0001.35,0000.30,0000.20
2022-11-10 21:35:00,,0821.6,5.02,0.00,23.3,22.0,00.0,32.1,25.1,07.4,0000.0,0001.75,0000.29,0000.20
2022-11-10 21:36:00,,0821.5,4.98,0.00,23.3,22.0,00.0,32.1,25.1,07.4,0000.0,0001.74,0000.29,0000.20
2022-11-10 21:37:00,,0821.6,5.02,0.00,23.3,22.0,00.0,32.1,25.2,07.3,0000.0,0001.74,0000.29,0000.20
2022-11-10 21:38:00,,0821.7,5.00,0.00,23.3,22.0,00.0,32.1,25.1,07.3,0000.0,0001.79,0000.30,0000.20
2022-11-10 21:39:00,,0821.7,4.99,0.00,23.3,22.0,00.0,32.1,25.2,07.2,0000.0,0001.81,0000.31,0000.20
2022-11-10 21:40:00,,0821.6,5.01,0.00,23.3,22.1,00.0,32.1,25.2,07.1,0000.0,0001.78,0000.30,0000.20
2022-11-10 21:41:00,,0821.5,5.00,0.00,23.3,22.1,00.0,32.1,25.2,07.0,0000.0,0001.75,0000.29,0000.20
2022-11-10 21:42:00,,0821.5,4.99,0.00,23.3,22.0,00.0,32.1,25.2,06.9,0000.0,0001.71,0000.28,0000.19
2022-11-10 21:43:00,,0821.5,5.00,0.00,23.3,22.0,00.0,32.1,25.2,07.0,0000.0,0001.67,0000.26,0000.19
2022-11-10 21:44:00,,0821.5,5.00,0.00,23.3,22.0,00.0,32.1,25.2,06.9,0000.0,0001.61,0000.24,0000.18
2022-11-10 21:45:00,,0821.5,5.00,0.00,23.3,22.0,00.0,32.2,25.2,06.9,0000.0,0000.96,0000.22,0000.18
2022-11-10 21:46:00,,0821.4,5.01,0.00,23.3,22.0,00.0,32.2,25.1,06.9,0000.0,0000.34,0000.22,0000.18
2022-11-10 21:47:00,,0821.5,5.01,0.00,23.3,22.0,00.0,32.2,25.1,06.9,0000.0,0000.97,0000.22,0000.17
2022-11-10 21:48:00,,0821.6,4.99,0.00,23.3,21.9,00.0,32.2,25.1,07.0,0000.0,0001.17,0000.23,0000.17
2022-11-10 21:49:00,,0821.6,4.99,0.00,23.3,21.9,00.0,32.2,25.1,07.0,0000.0,0001.11,0000.21,0000.17
2022-11-10 21:50:00,,0821.6,5.01,0.00,23.3,21.9,00.0,32.2,25.1,07.1,0000.0,0001.10,0000.21,0000.17
2022-11-10 21:51:00,,0821.7,4.99,0.00,23.3,21.9,00.0,32.2,25.1,07.1,0000.0,0001.14,0000.23,0000.17
2022-11-10 21:52:00,,0821.7,5.01,0.00,23.3,21.9,00.0,32.2,25.1,07.1,0000.0,0001.18,0000.25,0000.16
2022-11-10 21:53:00,,0821.7,4.99,0.00,23.3,21.9,00.0,32.2,25.1,07.1,0000.0,0001.19,0000.26,0000.17
2022-11-10 21:54:00,,0821.7,4.99,0.00,23.3,21.9,00.0,32.2,25.1,07.1,0000.0,0001.19,0000.26,0000.16
2022-11-10 21:55:00,,0821.7,5.02,0.00,23.3,21.9,00.0,32.2,25.1,07.2,0000.0,0001.19,0000.26,0000.16
2022-11-10 21:56:00,,0821.7,5.00,0.00,23.3,21.9,00.0,32.1,25.1,07.2,0000.0,0001.22,0000.26,0000.16
2022-11-10 21:57:00,,0821.8,4.99,0.00,23.3,21.9,00.0,32.1,25.1,07.1,0000.0,0001.24,0000.27,0000.16
2022-11-10 21:58:00,,0821.7,5.00,0.00,23.3,21.9,00.0,32.1,25.1,07.2,0000.0,0000.71,0000.27,0000.17
2022-11-10 21:59:00,,0821.7,5.02,0.00,23.3,21.9,00.0,32.2,25.1,07.3,0000.0,0000.41,0000.25,0000.17
